Wind_Speed
13 13 14 14 15 13 11 9 9 8 7 7 7 7 8 8 8 8 9 9 9 8 8 7 7 5 4 2 1 1 2 2 3 4 4 5 6 6 7 7 7 8 8 8 8 8 8 8 9
13 12 13 14 14 12 10 10 9 9 9 8 8 8 8 8 9 9 9 9 10 9 8 7 7 6 4 2 1 1 1 2 3 3 4 5 6 7 7 7 7 7 8 8 8 8 8 8 9
13 13 14 13 13 10 10 10 10 9 9 8 9 9 9 9 9 9 10 10 10 9 9 8 6 6 4 3 2 2 2 2 2 2 3 5 6 6 7 7 6 6 7 6 7 8 8 8 8
12 13 15 14 11 10 10 9 9 8 8 9 9 10 10 10 9 10 10 10 10 10 9 8 6 6 5 3 2 2 2 2 2 2 3 4 6 6 6 6 5 5 5 5 5 6 6 6 7
11 13 14 12 11 10 11 10 10 9 9 9 10 11 10 10 10 10 10 10 10 10 9 8 7 6 5 4 2 2 2 2 1 1 2 2 3 4 4 4 5 4 4 4 4 5 5 5 6
11 14 14 11 10 10 11 11 10 9 9 9 10 11 11 11 11 11 11 11 11 10 10 9 7 6 5 4 3 2 1 1 0 1 1 1 1 2 2 3 4 4 4 4 4 5 5 5 6
12 13 13 10 10 10 10 10 9 10 9 10 10 10 11 11 12 11 11 11 11 11 10 10 9 7 6 5 4 3 2 1 1 1 1 1 1 1 0 2 3 3 4 4 4 4 5 5 6
10 11 10 9 8 9 10 10 10 10 10 10 10 11 11 11 12 12 11 11 12 12 11 11 9 8 6 5 5 3 2 2 1 2 2 2 3 2 1 1 2 2 3 4 4 4 4 5 5
8 9 9 7 8 9 10 10 10 10 10 11 11 11 11 12 12 11 11 12 12 12 12 12 11 8 7 6 6 5 3 2 2 2 3 3 3 3 2 2 1 2 3 3 3 4 5 5 5
5 6 7 7 8 9 8 9 10 9 10 10 11 11 11 12 12 12 12 12 12 13 13 12 12 10 8 7 7 6 5 4 4 4 4 4 3 3 3 2 2 2 3 3 4 4 4 5 5
5 6 7 7 6 7 7 8 8 9 9 10 11 10 11 12 12 13 13 13 12 13 13 13 12 11 10 9 7 6 5 5 5 4 4 5 4 3 3 3 3 3 3 4 4 4 5 5 5
4 5 5 5 5 7 7 7 7 9 10 11 11 11 11 12 12 12 13 13 12 12 13 13 12 12 11 10 8 6 5 6 6 5 6 6 5 4 4 4 4 3 3 3 4 4 5 4 4
2 3 4 6 6 7 8 7 8 9 10 10 10 10 12 12 12 12 12 13 13 12 12 12 12 13 12 11 9 7 7 7 7 6 6 7 7 6 6 5 5 4 4 4 4 4 5 4 4
1 2 3 5 6 7 8 8 8 10 10 10 10 10 10 11 11 12 12 12 12 12 12 12 12 13 13 12 11 10 9 9 8 8 8 8 8 7 7 7 7 7 7 5 4 5 6 6 6
2 3 5 4 6 7 8 9 9 10 11 12 10 9 9 10 11 11 12 12 12 12 12 12 11 12 12 12 12 12 11 10 9 9 9 9 10 9 8 8 7 7 7 7 6 6 6 6 6
4 6 6 5 6 8 8 10 10 11 12 12 11 10 9 9 10 10 11 11 12 12 12 11 11 11 12 11 11 11 11 11 10 9 9 8 8 9 9 9 9 9 9 9 8 8 7 7 7
5 6 7 8 6 7 8 11 11 11 12 11 11 10 9 9 9 9 9 10 11 11 11 11 11 11 10 10 10 10 10 11 10 10 10 9 9 9 9 10 10 10 9 9 9 8 8 8 8
6 7 7 8 8 8 8 10 10 10 12 12 11 11 10 8 8 8 8 8 9 10 11 11 11 10 10 10 10 10 10 10 10 10 10 10 9 9 10 10 10 10 10 10 10 9 9 10 10
7 8 7 7 8 8 8 10 9 9 10 11 10 11 10 8 7 8 8 8 8 9 10 11 10 10 10 10 10 10 10 10 10 10 10 10 11 11 11 11 11 11 11 11 11 11 11 11 11
8 8 6 8 9 7 8 10 10 10 10 10 10 10 10 10 7 8 8 8 8 9 9 10 10 10 10 10 10 11 11 11 11 11 11 11 11 12 12 12 12 11 11 12 12 12 12 12 13
10 9 8 9 9 9 8 12 13 11 9 11 11 11 11 11 8 9 8 8 8 9 9 10 10 10 10 10 10 11 11 11 11 11 11 11 11 12 12 13 13 13 13 13 13 14 14 14 15
10 10 9 10 10 12 10 11 14 13 12 11 12 12 12 12 11 10 9 9 9 9 9 9 10 10 11 11 10 11 12 12 13 12 12 12 13 13 13 14 15 15 15 15 15 15 16 16 16
10 10 10 11 11 10 9 10 13 13 12 12 13 13 12 13 12 11 9 9 9 9 9 9 10 11 11 12 12 11 11 12 13 13 13 13 14 15 15 15 15 16 16 16 17 16 16 17 17
10 11 11 11 12 11 8 8 12 12 12 14 14 13 12 12 12 10 10 10 10 9 10 10 11 12 12 12 13 13 12 13 14 14 14 15 15 16 16 16 16 16 17 17 17 18 18 18 18
10 10 10 10 11 9 8 9 12 12 13 16 16 14 13 13 12 12 10 11 11 10 10 11 12 13 13 14 14 14 14 14 15 15 15 16 16 17 17 17 18 18 18 18 18 19 19 20 19
10 10 11 12 12 9 11 12 12 13 14 15 16 15 14 13 13 13 12 12 12 11 12 13 13 14 15 15 16 15 16 16 16 16 17 17 18 18 18 19 19 19 19 19 20 20 20 20 20
12 12 11 12 13 12 11 14 14 12 14 16 16 16 15 14 13 13 12 12 13 13 14 15 14 15 16 17 17 16 16 17 17 17 18 19 19 19 20 20 21 21 21 21 21 21 21 21 21
14 12 11 13 15 16 14 14 14 13 14 16 16 16 14 14 14 14 13 12 13 14 15 16 16 16 17 17 17 17 17 18 18 18 19 20 20 21 21 21 21 21 22 22 22 22 22 22 21
16 15 14 14 15 15 15 13 13 15 15 14 16 16 15 14 14 15 13 13 14 15 16 16 17 17 17 17 17 18 18 19 20 20 20 21 21 22 22 22 22 22 23 23 23 22 22 23 23
17 18 16 16 16 15 15 17 14 14 15 15 15 16 16 15 15 14 13 14 14 15 16 17 17 17 17 18 18 19 20 20 21 22 22 22 23 23 23 24 24 24 23 23 24 23 23 24 24
Wind_Direction
69 68 63 59 54 49 39 27 26 28 27 24 23 19 19 16 14 11 6 358 1 0 358 4 6 7 5 348 286 239 254 259 260 257 251 241 240 241 239 239 238 243 246 243 244 248 254 262 265
70 67 62 54 49 41 27 23 24 25 24 23 20 21 19 16 13 11 4 358 358 3 3 5 5 8 8 357 321 262 265 273 269 273 260 246 243 240 234 235 238 240 240 242 242 245 254 263 264
70 66 60 53 43 33 23 20 23 25 22 19 15 16 14 12 10 7 4 3 4 7 6 8 10 8 2 347 308 283 283 286 271 286 278 251 241 238 231 235 239 242 241 241 244 249 254 259 261
72 65 60 53 41 26 19 18 21 25 18 15 12 12 12 11 8 7 6 6 10 13 13 10 14 12 5 355 322 291 292 294 274 276 286 261 244 236 233 231 243 247 242 242 246 252 258 260 259
74 69 56 44 34 23 12 12 16 15 15 10 8 10 11 13 11 8 9 10 11 13 15 16 17 14 12 8 350 324 304 282 276 295 304 273 239 235 235 234 239 245 245 247 259 262 266 271 265
68 70 58 43 29 20 11 11 14 11 11 10 6 8 11 15 13 12 14 14 13 16 20 20 22 16 17 14 355 333 314 322 348 27 348 309 231 214 230 246 249 252 251 259 266 272 273 275 275
66 67 59 40 20 14 8 9 17 18 11 12 10 11 15 16 16 16 19 17 16 21 26 27 30 19 15 12 5 359 353 357 6 18 40 31 81 90 269 259 254 259 259 265 270 277 276 276 278
61 64 55 35 21 8 10 6 13 15 13 13 13 13 16 17 18 18 20 19 19 20 21 27 22 18 19 15 21 21 39 33 22 39 46 59 78 70 19 295 267 270 270 276 286 290 290 285 282
60 59 52 32 15 7 7 6 13 17 14 10 10 11 13 17 18 17 18 16 18 20 23 25 22 14 19 18 21 26 37 38 31 34 34 45 56 41 21 0 315 296 292 296 311 309 293 287 286
68 43 40 27 10 2 2 9 11 10 11 7 9 8 11 15 17 18 19 18 19 20 21 22 25 20 19 18 19 25 32 27 33 45 35 39 46 38 20 355 328 310 297 299 310 314 300 291 293
32 35 31 17 2 355 359 7 5 359 4 3 8 12 16 19 18 18 19 21 21 20 20 19 19 23 20 19 21 26 27 39 44 54 41 38 37 24 16 6 356 355 328 310 310 311 315 307 296
17 22 15 2 359 355 356 2 357 0 357 0 5 9 16 17 17 17 18 19 19 18 18 16 17 18 16 18 24 25 29 38 44 50 44 39 33 24 19 17 14 2 346 328 317 313 317 320 324
354 1 5 6 360 351 352 357 354 355 355 356 359 2 6 8 14 18 16 16 17 18 17 15 16 17 17 17 22 29 39 42 42 39 34 32 32 29 31 26 17 15 8 355 338 334 334 319 315
27 339 344 10 3 346 345 349 348 347 349 350 353 356 2 7 11 16 15 15 18 21 20 18 18 22 25 25 31 40 41 40 40 38 32 33 31 27 21 18 15 19 15 4 350 344 343 343 331
282 317 342 348 355 352 341 342 342 343 344 347 353 354 359 6 10 12 14 16 19 21 22 23 24 29 33 35 36 40 43 42 38 34 32 32 30 25 19 15 11 12 7 7 359 352 345 343 338
324 340 332 325 339 341 334 342 340 343 342 345 348 348 350 358 5 8 11 15 19 21 22 24 26 30 33 34 36 37 37 36 31 29 25 24 22 17 16 10 7 6 2 2 1 356 349 341 336
326 326 319 316 324 323 332 332 336 336 336 339 339 340 346 348 355 2 7 12 17 21 22 23 24 25 26 30 31 28 24 25 25 24 20 18 13 7 7 8 7 3 2 359 357 352 344 340 335
294 298 297 313 314 310 324 320 325 330 329 334 337 337 339 334 341 354 1 4 10 17 18 20 20 20 19 20 21 19 18 19 21 19 13 8 3 4 4 4 2 357 354 352 349 347 343 338 332
270 281 288 300 305 312 315 312 317 321 322 326 330 329 329 333 338 341 348 352 358 6 11 14 14 14 15 15 14 15 14 11 9 8 8 5 3 2 358 353 353 351 349 346 342 339 337 334 331
259 267 284 296 293 304 304 301 304 309 317 320 320 319 320 328 335 334 335 341 346 353 357 2 6 9 10 9 8 6 4 2 0 1 2 359 355 354 352 349 347 345 343 340 336 333 331 330 327
256 262 264 272 283 285 287 297 302 303 304 312 320 322 323 320 332 329 332 335 336 341 348 352 356 357 357 358 0 3 0 359 359 356 356 354 351 350 348 344 343 340 335 333 330 328 328 327 326
254 259 263 268 276 282 281 293 300 312 310 310 318 320 317 315 320 321 326 329 327 332 339 344 344 345 345 344 345 350 351 351 353 353 352 351 348 345 343 340 338 336 333 330 329 325 323 322 321
250 264 270 266 268 276 280 285 294 310 317 315 316 314 311 309 310 310 313 317 320 322 325 332 336 340 342 339 335 338 341 343 344 346 346 345 343 341 339 337 334 333 331 328 326 324 322 319 318
249 261 265 268 274 280 275 274 291 303 312 309 308 309 307 300 296 297 303 306 310 312 313 319 326 330 333 333 332 333 333 334 335 336 337 337 337 337 336 335 332 330 328 326 324 323 320 317 314
243 251 264 268 273 279 288 275 278 293 301 302 303 305 304 301 295 294 296 298 302 303 306 311 318 320 322 323 323 327 328 328 328 327 329 331 333 333 332 331 328 326 325 323 321 319 317 315 313
242 247 263 274 281 279 285 275 275 282 296 302 301 301 302 302 298 295 292 296 296 296 300 305 309 312 314 316 319 322 324 325 325 325 326 327 328 328 327 326 324 322 321 320 319 317 317 316 313
241 248 259 276 287 274 270 278 279 285 293 297 298 300 297 296 295 295 294 292 293 294 297 303 303 307 309 310 314 317 321 322 322 322 322 322 322 322 321 321 320 318 317 316 316 316 314 312 310
243 246 250 263 278 281 272 278 286 289 292 290 291 298 297 293 292 292 291 292 296 297 298 302 303 306 306 307 310 313 315 318 318 318 318 318 318 317 317 318 317 316 314 313 312 312 312 311 308
249 250 245 250 263 277 277 277 277 285 287 283 288 295 296 295 291 291 291 295 297 298 300 301 301 302 304 306 310 311 312 314 315 316 316 315 315 316 315 315 315 313 312 311 310 310 310 309 307
246 247 248 253 262 267 276 277 276 287 291 289 288 290 290 291 290 291 295 298 299 299 300 303 303 303 303 306 308 309 310 311 312 313 312 312 312 314 314 314 314 312 310 310 309 307 307 307 306
Height
5893 5893 5892 5892 5891 5891 5891 5890 5889 5888 5887 5885 5884 5882 5881 5880 5879 5880 5876 5873 5872 5870 5869 5867 5866 5865 5864 5864 5863 5864 5864 5864 5864 5864 5864 5864 5864 5865 5865 5866 5867 5867 5868 5869 5869 5870 5870 5871 5870
5895 5895 5894 5893 5893 5894 5893 5892 5890 5889 5888 5886 5885 5884 5882 5880 5879 5878 5876 5874 5872 5871 5869 5867 5866 5866 5865 5864 5864 5864 5864 5863 5863 5862 5862 5863 5863 5864 5864 5865 5866 5866 5867 5867 5868 5869 5869 5869 5869
5897 5896 5895 5895 5896 5897 5896 5894 5892 5891 5889 5888 5886 5885 5884 5882 5880 5878 5876 5875 5872 5871 5869 5867 5866 5866 5865 5864 5864 5864 5863 5863 5862 5862 5861 5861 5861 5862 5863 5864 5865 5865 5866 5866 5867 5867 5867 5867 5867
5898 5897 5897 5898 5898 5898 5897 5896 5894 5892 5891 5889 5888 5886 5884 5882 5881 5879 5877 5875 5873 5871 5869 5867 5866 5866 5865 5864 5864 5863 5863 5863 5862 5861 5860 5859 5859 5861 5862 5863 5864 5865 5865 5866 5866 5866 5866 5866 5866
5899 5898 5899 5900 5900 5900 5898 5897 5895 5894 5892 5890 5889 5887 5885 5883 5881 5879 5877 5875 5873 5871 5870 5868 5867 5866 5865 5864 5864 5863 5863 5863 5862 5861 5860 5859 5859 5861 5862 5863 5863 5864 5865 5865 5865 5866 5865 5865 5865
5899 5898 5901 5903 5902 5902 5900 5898 5897 5895 5893 5891 5890 5888 5886 5884 5882 5880 5878 5876 5874 5872 5870 5869 5867 5866 5866 5865 5864 5863 5863 5862 5862 5861 5861 5860 5860 5861 5862 5863 5863 5864 5864 5864 5865 5865 5864 5864 5864
5902 5901 5904 5905 5904 5903 5902 5900 5898 5896 5894 5893 5891 5889 5887 5885 5883 5881 5879 5877 5875 5873 5871 5870 5868 5867 5866 5864 5863 5863 5862 5863 5862 5862 5862 5861 5861 5862 5862 5863 5863 5863 5864 5864 5864 5864 5863 5863 5863
5905 5907 5906 5907 5906 5905 5903 5901 5899 5897 5896 5894 5893 5891 5888 5886 5884 5882 5880 5878 5876 5874 5872 5871 5869 5868 5866 5865 5863 5863 5863 5863 5863 5863 5862 5862 5862 5862 5862 5863 5863 5863 5863 5863 5863 5863 5862 5862 5862
5907 5910 5908 5909 5908 5906 5904 5902 5900 5898 5897 5896 5894 5892 5890 5888 5886 5884 5882 5880 5878 5876 5874 5872 5870 5868 5867 5865 5864 5863 5863 5863 5863 5863 5863 5863 5863 5863 5863 5862 5862 5863 5863 5862 5862 5862 5862 5861 5861
5910 5910 5911 5910 5909 5908 5906 5904 5902 5900 5898 5897 5895 5893 5891 5889 5887 5885 5883 5881 5879 5877 5875 5873 5871 5869 5867 5866 5865 5864 5864 5864 5864 5864 5864 5864 5864 5863 5863 5863 5862 5862 5862 5862 5862 5861 5861 5861 5860
5911 5911 5911 5911 5910 5909 5907 5905 5903 5901 5900 5898 5896 5894 5892 5890 5889 5886 5884 5882 5880 5879 5877 5874 5872 5870 5868 5867 5866 5865 5865 5865 5865 5865 5865 5864 5864 5864 5864 5863 5863 5862 5862 5861 5860 5861 5860 5860 5860
5912 5912 5912 5912 5910 5909 5907 5906 5904 5902 5901 5899 5897 5895 5893 5892 5890 5888 5886 5884 5882 5880 5878 5876 5874 5872 5870 5868 5866 5865 5866 5866 5866 5866 5865 5865 5865 5865 5864 5864 5864 5863 5862 5861 5860 5860 5860 5860 5860
5913 5913 5912 5912 5911 5909 5908 5907 5905 5903 5901 5900 5898 5896 5895 5893 5891 5889 5887 5885 5883 5882 5880 5878 5876 5874 5871 5869 5867 5866 5866 5866 5867 5867 5867 5866 5866 5865 5865 5864 5864 5863 5862 5862 5861 5860 5860 5860 5859
5913 5913 5912 5911 5911 5910 5909 5907 5905 5903 5901 5900 5899 5897 5896 5894 5892 5890 5889 5887 5885 5883 5881 5880 5878 5876 5874 5872 5870 5869 5869 5869 5869 5868 5868 5867 5867 5866 5866 5865 5864 5864 5863 5862 5861 5861 5860 5860 5860
5911 5912 5912 5911 5911 5910 5909 5908 5905 5904 5902 5901 5899 5897 5896 5895 5894 5892 5890 5888 5887 5885 5883 5882 5880 5879 5877 5875 5874 5872 5872 5871 5870 5870 5869 5868 5868 5867 5866 5866 5865 5864 5862 5861 5861 5861 5861 5860 5860
5910 5911 5912 5911 5911 5911 5911 5908 5905 5904 5903 5902 5900 5898 5897 5896 5895 5893 5892 5890 5888 5887 5885 5884 5882 5881 5879 5878 5877 5875 5874 5873 5872 5871 5870 5869 5869 5868 5867 5866 5865 5865 5863 5862 5862 5861 5861 5860 5860
5911 5911 5911 5911 5911 5911 5910 5908 5906 5904 5903 5902 5901 5899 5897 5896 5895 5894 5893 5892 5890 5888 5887 5885 5884 5882 5881 5880 5879 5877 5876 5875 5874 5873 5871 5870 5870 5869 5868 5867 5866 5865 5864 5863 5862 5861 5861 5860 5859
5914 5913 5913 5912 5911 5910 5909 5908 5907 5905 5904 5902 5901 5899 5897 5896 5895 5894 5893 5892 5891 5890 5888 5887 5885 5884 5883 5881 5880 5879 5878 5876 5875 5874 5872 5871 5870 5869 5868 5867 5866 5865 5864 5863 5862 5861 5860 5859 5858
5913 5913 5912 5912 5911 5911 5909 5907 5906 5904 5903 5902 5901 5900 5898 5896 5895 5894 5894 5893 5892 5891 5889 5888 5887 5885 5884 5883 5881 5880 5879 5877 5876 5874 5873 5872 5870 5869 5868 5867 5866 5865 5864 5863 5862 5861 5860 5858 5857
5912 5912 5912 5912 5910 5910 5909 5907 5905 5904 5902 5901 5900 5899 5898 5895 5895 5894 5894 5893 5892 5891 5890 5889 5888 5886 5885 5883 5882 5880 5879 5878 5876 5874 5873 5872 5870 5869 5868 5867 5865 5864 5863 5862 5861 5860 5859 5857 5856
5910 5910 5911 5911 5909 5908 5908 5906 5904 5903 5901 5901 5900 5899 5897 5895 5895 5894 5893 5893 5892 5891 5890 5889 5888 5887 5885 5884 5883 5881 5880 5878 5877 5875 5873 5872 5870 5869 5868 5866 5865 5863 5862 5861 5860 5858 5857 5856 5854
5907 5908 5909 5909 5908 5907 5907 5905 5903 5902 5901 5899 5899 5898 5897 5895 5894 5894 5893 5892 5892 5891 5890 5889 5888 5887 5885 5884 5883 5881 5880 5878 5877 5875 5873 5872 5870 5868 5867 5865 5863 5862 5861 5859 5858 5857 5855 5854 5852
5905 5906 5906 5906 5905 5904 5904 5904 5902 5900 5900 5899 5899 5898 5897 5895 5894 5893 5892 5892 5891 5890 5890 5889 5888 5886 5885 5884 5882 5881 5879 5878 5876 5874 5873 5871 5869 5867 5866 5864 5862 5861 5859 5857 5856 5854 5853 5851 5850
5903 5904 5904 5903 5903 5902 5902 5902 5901 5899 5899 5898 5898 5897 5896 5894 5892 5892 5891 5891 5890 5890 5889 5888 5887 5886 5885 5883 5882 5880 5878 5877 5875 5873 5871 5870 5868 5866 5864 5862 5860 5859 5857 5855 5853 5852 5850 5848 5846
5901 5902 5902 5901 5900 5901 5901 5901 5901 5898 5898 5897 5896 5895 5894 5892 5891 5891 5890 5889 5889 5888 5887 5887 5886 5885 5883 5882 5880 5879 5877 5875 5873 5872 5870 5868 5866 5864 5862 5860 5858 5856 5855 5853 5851 5849 5847 5844 5843
5899 5900 5900 5900 5898 5899 5899 5898 5898 5897 5896 5895 5894 5893 5892 5890 5890 5889 5888 5887 5887 5886 5886 5885 5884 5883 5881 5880 5878 5877 5875 5873 5871 5869 5867 5865 5863 5862 5859 5857 5855 5853 5851 5849 5847 5845 5843 5841 5839
5896 5897 5898 5898 5897 5897 5897 5894 5894 5894 5893 5893 5892 5891 5890 5888 5888 5887 5886 5885 5885 5884 5883 5882 5881 5880 5879 5877 5876 5874 5872 5870 5868 5866 5864 5862 5860 5858 5856 5854 5852 5850 5847 5845 5843 5841 5839 5837 5834
5893 5895 5897 5896 5895 5895 5894 5892 5892 5890 5889 5890 5889 5888 5887 5886 5885 5885 5884 5883 5883 5881 5880 5879 5879 5877 5876 5875 5873 5871 5869 5867 5865 5863 5861 5859 5857 5855 5853 5851 5848 5846 5843 5841 5839 5837 5834 5832 5830
5890 5891 5892 5893 5893 5892 5890 5891 5888 5889 5886 5885 5886 5886 5884 5883 5883 5882 5882 5881 5880 5879 5878 5877 5875 5874 5873 5872 5870 5868 5866 5864 5862 5860 5858 5856 5853 5851 5849 5846 5844 5841 5839 5836 5834 5832 5829 5827 5825
5886 5887 5888 5889 5888 5888 5887 5889 5886 5886 5883 5882 5883 5883 5882 5881 5879 5879 5879 5878 5877 5876 5875 5873 5872 5871 5869 5868 5866 5865 5863 5861 5859 5856 5854 5852 5849 5847 5844 5841 5839 5836 5834 5831 5829 5826 5824 5822 5819